Flag for United Arab Emirates Weather past 2 weeks in Dubai, Dubai, United Arab Emirates

Now
72 °F

Passing clouds.


Feels Like: 76 °F
Forecast: 65 / 75 °F
Wind: 13 mph from Northeast

Location: Dubai International Airport

Current Time: Feb 28, 2015 at 10:23:33 AM

Latest Report: Feb 28, 2015 at 10:00 AM


Visibility: N/A

Pressure: 30.07 "Hg

Humidity: 27%

Dew point: 36 °F

Location of DubaiLocation

Historic Weather in Dubai — Graph

°F

Dubai temperature yesterday

Maximum temperature yesterday: 73 °F (at 11:00 AM)
Minimum temperature yesterday: 70 °F (at 12:00 AM)
Average temperature yesterday: 71 °F

Past Weeks' High & Low Weather Summary

 TemperatureHumidityPressure
High95 °F (Feb 19, 3:00 PM)94% (Feb 16, 5:00 AM)30.09 "Hg (Feb 16, 5:00 AM)
Low61 °F (Feb 25, 5:00 AM)9% (Feb 19, 1:00 PM)29.65 "Hg (Feb 20, 5:00 PM)
Average76 °F43%29.92 "Hg
* Reported Feb 13 9:00 AM — Feb 28 9:00 AM, Dubai, Weather by CustomWeather, © 2015

Note: Actual official high and low records may vary slightly from our data, if they occured in-between our weather recording intervals... More about our weather records

Advertising

Dubai weather history for previous 24 hours

 ConditionsComfort  
Time TempWeatherWind HumidityBarometerVisibility
9:00 AM
Sat, Feb 28
68 °FPassing clouds.5 mph33%30.07 "HgN/A
8:00 AM64 °FPassing clouds.3 mph43%30.04 "HgN/A
7:00 AM63 °FPassing clouds.5 mph45%30.01 "HgN/A
6:00 AM63 °FPassing clouds.6 mph49%29.98 "HgN/A
5:00 AM64 °FPassing clouds.6 mph52%29.98 "HgN/A
4:00 AM64 °FPassing clouds.8 mph52%29.95 "HgN/A
3:00 AM64 °FPassing clouds.6 mph56%29.98 "HgN/A
2:00 AM68 °FPassing clouds.9 mph43%29.98 "HgN/A
1:00 AM68 °FPassing clouds.8 mph43%29.98 "HgN/A
12:00 AM68 °FPassing clouds.7 mph46%29.98 "HgN/A
11:00 PM
Fri, Feb 27
70 °FPassing clouds.10 mph40%29.98 "HgN/A
10:00 PM70 °FClear.10 mph38%29.98 "Hg10 mi
9:00 PM70 °FPassing clouds.13 mph40%29.98 "HgN/A
8:00 PM70 °FPassing clouds.13 mph38%29.95 "HgN/A
7:00 PM70 °FPassing clouds.16 mph38%29.92 "HgN/A
6:00 PM72 °FSunny.18 mph33%29.89 "Hg10 mi
5:00 PM72 °FClear.21 mph36%29.89 "Hg5 mi
4:00 PM72 °FPassing clouds.21 mph44%29.86 "Hg4 mi
3:00 PM72 °FPartly sunny.20 mph50%29.86 "Hg3 mi
2:00 PM73 °FPartly sunny.20 mph44%29.86 "HgN/A
1:00 PM73 °FPartly sunny.20 mph53%29.89 "HgN/A
12:00 PM73 °FPartly sunny.20 mph53%29.92 "HgN/A
11:00 AM73 °FPartly sunny.20 mph50%29.92 "HgN/A
10:00 AM72 °FPartly sunny.20 mph57%29.92 "HgN/A
Weather by CustomWeather, © 2015

See weather overviewHow to use our weather pages